Location: Kellogg
(38.0159°N, 90.0546°W)
Time: 08:13:00
(UTC+00:00)

Vanguard 1 Rocket - Pass Details

Date: 20 September 2024
Orbit: 650 x 4218 km, 34.3° (Epoch: 05 October)

Event Time Altitude Azimuth Distance (km) Brightness Sun altitude
Rises 06:35:36 0° 209° (SSW) 4,085 - -49.9°
Reaches altitude 10° 06:38:12 10° 199° (SSW) 3,448 - -49.8°
Maximum altitude 06:46:16 34° 137° (SE) 2,969 - -49.3°
Exits shadow 06:50:25 29° 108° (ESE) 3,656 10.3 -49.0°
Drops below altitude 10° 07:00:18 10° 81° (E) 6,045 11.8 -48.2°
Sets 07:06:44 0° 74° (ENE) 7,611 12.5 -47.6°
